• Join FlightAware (Why Join?)
  • Login
  • US Flag 
12:31AM EST


 

Airport Tracker/Info


-or-


 

Live Flight TrackerFlight Track Log ✈ FDX739 ✈ 09-May-2013 ✈ KMEM - KLCK

Flight Track Log - Related Links

Times and Time Zones

All times are in EDT time to prevent confusion due to time zone crossing. See the FDX739 flight status page for this flight to view local times or setup timezone preferences in your user account.

Time Position Orientation Groundspeed Altitude Reporting Facility
EDT Latitude Longitude Course Direction KTS MPH feet Rate Location/Type
04:36PM 35.0167 -89.9667 73° East 155 178 1,100  Level KMEM
04:38PM 34.9500 -89.9500 168° South 237 273 3,500 2,061 Climbing KMEM
04:38PM 34.9167 -89.8833 121° Southeast 282 325 5,600 2,827 Climbing KMEM
04:39PM 34.9333 -89.8000 76° East 299 344 8,400 2,261 Climbing KMEM
04:41PM 35.0014 -89.6853 54° Northeast 360 414 10,800 1,870 Climbing Memphis Center
04:42PM 35.2196 -89.2051 73° East  Level FlightAware Approximate
04:42PM 35.0547 -89.5581 63° Northeast 365 420 12,700  Level Memphis Center
04:43PM 35.1081 -89.4331 62° Northeast 394 453 14,800 2,000 Climbing Memphis Center
04:44PM 35.1675 -89.3031 61° Northeast 418 481 16,700 1,800 Climbing Memphis Center
04:45PM 35.2269 -89.1675 62° Northeast 442 509 18,400 1,950 Climbing Memphis Center
04:46PM 35.2900 -89.0267 61° Northeast 458 527 20,600 1,677 Climbing Memphis Center
04:52PM 35.8220 -88.2260 61° Northeast 491 565 30,500 1,471 Climbing FlightAware
04:52PM 35.8750 -88.1680 42° Northeast 491 565 30,600 1,553 Climbing FlightAware
04:53PM 35.9660 -88.0660 42° Northeast 482 555 32,700 1,800 Climbing FlightAware
04:54PM 36.0320 -87.9930 42° Northeast 484 557 33,300 988 Climbing FlightAware
04:55PM 36.1070 -87.9090 42° Northeast 486 559 34,100 1,129 Climbing FlightAware
04:55PM 36.1720 -87.8340 43° Northeast 481 554 34,900 635 Climbing FlightAware
04:56PM 36.2490 -87.7490 42° Northeast 478 550 35,000 71 Climbing FlightAware
04:57PM 36.3150 -87.6740 42° Northeast 473 544 35,000  Level FlightAware
04:57PM 36.3780 -87.6020 43° Northeast 472 543 35,000  Level FlightAware
04:58PM 36.4500 -87.5210 42° Northeast 474 545 35,000  Level FlightAware
04:59PM 36.5140 -87.4460 43° Northeast 473 544 35,000  Level FlightAware
05:00PM 36.5780 -87.3740 42° Northeast 471 542 35,000  Level FlightAware
05:00PM 36.6430 -87.2980 43° Northeast 474 545 35,000  Level FlightAware
05:01PM 36.7180 -87.2130 42° Northeast 474 545 35,000  Level FlightAware
05:02PM 36.7890 -87.1320 42° Northeast 473 544 35,000  Level FlightAware
05:02PM 36.8460 -87.0670 42° Northeast 473 544 35,000  Level FlightAware
05:03PM 36.9170 -86.9830 43° Northeast 473 544 35,000  Level FlightAware
05:04PM 36.9880 -86.9030 42° Northeast 474 545 35,000  Level FlightAware
05:04PM 37.0550 -86.8240 43° Northeast 474 545 35,000  Level FlightAware
05:05PM 37.1260 -86.7400 43° Northeast 475 547 35,000  Level FlightAware
05:06PM 37.1900 -86.6660 43° Northeast 476 548 35,000  Level FlightAware
05:06PM 37.2456 -86.6005 43° Northeast 478 550 35,000  Level FlightAware ADS-B
05:07PM 37.3130 -86.5210 43° Northeast 476 548 35,000  Level FlightAware
05:08PM 37.3663 -86.4604 42° Northeast 478 550 35,000 71 Level FlightAware ADS-B
05:09PM 37.4570 -86.3520 43° Northeast 477 549 35,100 58 Climbing FlightAware
05:09PM 37.5300 -86.2660 43° Northeast 475 547 35,100 -71 Level FlightAware
05:10PM 37.5900 -86.1940 44° Northeast 474 545 35,000 -71 Descending FlightAware
05:11PM 37.6650 -86.1050 43° Northeast 474 545 35,000  Level FlightAware
05:12PM 37.7360 -86.0190 44° Northeast 473 544 35,000 -212 Level FlightAware
05:12PM 37.8020 -85.9410 43° Northeast 467 537 34,700 -675 Descending FlightAware
05:13PM 37.8640 -85.8660 44° Northeast 466 536 34,100 -975 Descending FlightAware
05:14PM 37.9240 -85.7950 43° Northeast 468 539 33,400 -825 Descending FlightAware
05:14PM 37.9900 -85.7150 44° Northeast 473 544 33,000 -267 Descending FlightAware
05:15PM 38.0680 -85.6220 43° Northeast 472 543 33,000  Level FlightAware
05:16PM 38.1340 -85.5490 41° Northeast 470 541 33,000  Level FlightAware
05:16PM 38.2050 -85.4830 36° Northeast 470 541 33,000  Level FlightAware
05:17PM 38.2820 -85.4090 37° Northeast 473 544 33,000 -212 Level FlightAware
05:18PM 38.3510 -85.3430 37° Northeast 468 539 32,700 -675 Descending FlightAware
05:18PM 38.4210 -85.2760 37° Northeast 461 531 32,100 -988 Descending FlightAware
05:19PM 38.4960 -85.2040 37° Northeast 458 527 31,300 -1,059 Descending FlightAware
05:20PM 38.5660 -85.1380 36° Northeast 459 528 30,600 -988 Descending FlightAware
05:21PM 38.6420 -85.0650 37° Northeast 455 524 29,900 -988 Descending FlightAware
05:21PM 38.7090 -85.0000 37° Northeast 454 522 29,200 -1,059 Descending FlightAware
05:22PM 38.7850 -84.9280 36° Northeast 447 514 28,400 -960 Descending FlightAware
05:23PM 38.8320 -84.8820 37° Northeast 441 507 28,000 -450 Descending FlightAware
05:23PM 38.9060 -84.8110 37° Northeast 441 507 27,800 -2,021 Descending FlightAware
05:24PM 38.9830 -84.7350 37° Northeast 429 494 24,800 -2,220 Descending FlightAware
05:25PM 39.0570 -84.6440 44° Northeast 427 491 24,100 -442 Descending FlightAware
05:26PM 39.1030 -84.5820 46° Northeast 427 491 24,100  Level FlightAware
05:26PM 39.1500 -84.5200 46° Northeast 427 491 24,100  Level FlightAware
05:27PM 39.1970 -84.4570 46° Northeast 427 491 24,100  Level FlightAware
05:28PM 39.2550 -84.3790 46° Northeast 427 491 24,100  Level FlightAware
05:28PM 39.2900 -84.3320 46° Northeast 427 491 24,100 -1,838 Level FlightAware
05:32PM 39.4500 -83.7940 69° East 398 458 16,900 -2,016 Descending FlightAware
05:33PM 39.4850 -83.7020 64° Northeast 397 457 15,700 -1,765 Descending FlightAware
05:33PM 39.5140 -83.6230 65° Northeast 389 448 14,400 -2,025 Descending FlightAware
05:34PM 39.5480 -83.5340 64° Northeast 377 434 13,000 -2,047 Descending FlightAware
05:35PM 39.5780 -83.4400 67° East 367 422 11,500 -1,137 Descending FlightAware
05:35PM 39.5980 -83.3430 75° East 354 407 11,200 -200 Descending FlightAware
05:36PM 39.6120 -83.2730 75° East 354 407 11,200  Level FlightAware
05:37PM 39.6300 -83.1860 75° East 354 407 11,200 -3,818 Level FlightAware
05:37PM 39.6711 -83.1625 75° East 279 321 6,300 -5,593 Descending Indianapolis Center
05:38PM 39.6914 -83.1200 58° Northeast 276 318 5,700 -778 Descending Indianapolis Center
05:38PM 39.7028 -83.0983 56° Northeast 222 255 5,600 -1,065 Descending Indianapolis Center
05:39PM 39.7178 -83.0622 62° Northeast 191 220 4,600 -1,672 Descending Indianapolis Center
05:39PM 39.7275 -83.0469 50° Northeast 158 182 3,900 -1,935 Descending Indianapolis Center
05:40PM 39.7439 -83.0172 54° Northeast 166 191 2,600 -1,770 Descending Indianapolis Center
05:40PM 39.7553 -83.0069 35° Northeast 153 176 2,100 -1,065 Descending Indianapolis Center
05:41PM 39.7753 -82.9797 46° Northeast 156 180 1,500 -750 Descending Indianapolis Center
05:42PM 39.8094 -82.9356 45° Northeast 155 178 800 -677 Descending Indianapolis Center
05:44PM 39.8138 -82.9278 90° East  Level Estimated